TimeCST,TemperatureF,Dew PointF,Humidity,Sea Level PressureIn,VisibilityMPH,Wind Direction,Wind SpeedMPH,Gust SpeedMPH,PrecipitationIn,Events,Conditions,WindDirDegrees,DateUTC
12:15 AM,36.1,36.1,100,30.20,5.0,Calm,Calm,-,N/A,,Clear,0,2012-11-22 06:15:00
12:35 AM,36.7,36.7,100,30.20,5.0,Calm,Calm,-,N/A,,Clear,0,2012-11-22 06:35:00
12:55 AM,36.5,36.5,100,30.20,4.0,Calm,Calm,-,N/A,,Clear,0,2012-11-22 06:55:00
1:15 AM,35.4,35.4,100,30.20,4.0,Calm,Calm,-,N/A,,Clear,0,2012-11-22 07:15:00
1:35 AM,35.8,35.8,100,30.20,4.0,Calm,Calm,-,N/A,,Clear,0,2012-11-22 07:35:00
1:55 AM,36.1,36.1,100,30.20,1.8,Calm,Calm,-,N/A,,Mist,0,2012-11-22 07:55:00
2:15 AM,35.1,35.1,100,30.19,2.5,ESE,3.5,-,N/A,,Clear,110,2012-11-22 08:15:00
2:55 AM,36.7,36.7,100,30.19,3.0,Calm,Calm,-,N/A,,Clear,0,2012-11-22 08:55:00
3:15 AM,36.9,36.9,100,30.19,4.0,Calm,Calm,-,N/A,,Clear,0,2012-11-22 09:15:00
3:35 AM,35.2,35.2,100,30.18,4.0,Calm,Calm,-,N/A,,Clear,0,2012-11-22 09:35:00
3:55 AM,35.1,35.1,100,30.18,3.0,Calm,Calm,-,N/A,,Clear,0,2012-11-22 09:55:00
4:15 AM,36.0,36.0,100,30.18,4.0,Calm,Calm,-,N/A,,Clear,0,2012-11-22 10:15:00
4:35 AM,36.5,36.5,100,30.19,2.5,Calm,Calm,-,N/A,,Clear,0,2012-11-22 10:35:00
4:55 AM,37.0,37.0,100,30.19,1.8,Calm,Calm,-,N/A,,Mist,0,2012-11-22 10:55:00
5:15 AM,35.1,35.1,100,30.18,4.0,ESE,3.5,-,N/A,,Clear,120,2012-11-22 11:15:00
5:35 AM,35.2,35.2,100,30.18,3.0,Calm,Calm,-,N/A,,Clear,0,2012-11-22 11:35:00
5:55 AM,36.3,36.3,100,30.18,2.5,SE,3.5,-,N/A,,Clear,130,2012-11-22 11:55:00
6:15 AM,37.6,37.6,100,30.18,1.8,Calm,Calm,-,N/A,,Mist,0,2012-11-22 12:15:00
6:35 AM,36.9,36.9,100,30.18,1.2,Calm,Calm,-,N/A,,Mist,0,2012-11-22 12:35:00
6:55 AM,39.4,39.4,100,30.18,1.0,Calm,Calm,-,N/A,,Mist,0,2012-11-22 12:55:00
7:15 AM,39.6,39.6,100,30.18,1.0,SSE,4.6,-,N/A,,Mist,160,2012-11-22 13:15:00
7:35 AM,44.1,44.1,100,30.17,2.0,SSE,5.8,-,N/A,,Clear,160,2012-11-22 13:35:00
7:55 AM,46.6,46.6,100,30.17,2.5,SSE,6.9,-,N/A,,Clear,150,2012-11-22 13:55:00
8:15 AM,49.3,48.2,96,30.17,3.0,South,9.2,-,N/A,,Clear,170,2012-11-22 14:15:00
8:35 AM,50.7,48.2,91,30.17,4.0,SSE,10.4,-,N/A,,Clear,160,2012-11-22 14:35:00
8:55 AM,52.3,49.3,89,30.16,4.0,South,9.2,-,N/A,,Clear,170,2012-11-22 14:55:00
9:15 AM,53.1,48.7,85,30.16,5.0,South,10.4,-,N/A,,Clear,170,2012-11-22 15:15:00
9:35 AM,54.7,49.5,83,30.16,5.0,South,8.1,-,N/A,,Haze,170,2012-11-22 15:35:00
9:55 AM,55.9,50.2,81,30.16,5.0,South,8.1,-,N/A,,Haze,170,2012-11-22 15:55:00
10:15 AM,58.1,50.9,77,30.14,7.0,SSE,11.5,-,N/A,,Clear,160,2012-11-22 16:15:00
10:35 AM,59.7,48.4,66,30.14,7.0,South,15.0,18.4,N/A,,Clear,170,2012-11-22 16:35:00
10:55 AM,61.2,48.2,62,30.13,10.0,South,11.5,18.4,N/A,,Clear,180,2012-11-22 16:55:00
11:15 AM,61.5,47.8,61,30.11,10.0,South,15.0,20.7,N/A,,Clear,170,2012-11-22 17:15:00
11:35 AM,63.3,47.5,56,30.11,10.0,South,16.1,19.6,N/A,,Clear,170,2012-11-22 17:35:00
11:55 AM,63.0,47.1,56,30.11,10.0,South,12.7,-,N/A,,Clear,170,2012-11-22 17:55:00
12:15 PM,63.5,47.3,56,30.09,10.0,SSE,13.8,18.4,N/A,,Clear,160,2012-11-22 18:15:00
12:35 PM,64.0,46.2,52,30.09,10.0,South,17.3,-,N/A,,Clear,180,2012-11-22 18:35:00
12:55 PM,64.8,45.9,50,30.08,10.0,South,16.1,-,N/A,,Clear,180,2012-11-22 18:55:00
1:15 PM,65.1,45.7,49,30.07,10.0,South,15.0,-,N/A,,Clear,170,2012-11-22 19:15:00
1:35 PM,64.8,45.1,49,30.06,10.0,South,15.0,21.9,N/A,,Clear,180,2012-11-22 19:35:00
1:55 PM,64.4,44.8,49,30.05,10.0,SSE,16.1,-,N/A,,Clear,160,2012-11-22 19:55:00
2:15 PM,64.2,45.3,50,30.05,10.0,South,13.8,-,N/A,,Clear,170,2012-11-22 20:15:00
2:35 PM,64.0,45.7,51,30.04,10.0,South,12.7,-,N/A,,Clear,170,2012-11-22 20:35:00
2:55 PM,62.6,44.8,52,30.04,10.0,South,13.8,18.4,N/A,,Clear,180,2012-11-22 20:55:00
3:15 PM,62.8,45.1,53,30.04,10.0,South,15.0,-,N/A,,Clear,170,2012-11-22 21:15:00
3:35 PM,61.9,45.3,55,30.03,10.0,South,16.1,19.6,N/A,,Clear,170,2012-11-22 21:35:00
3:55 PM,61.3,45.5,56,30.03,10.0,South,10.4,-,N/A,,Clear,170,2012-11-22 21:55:00
4:15 PM,59.5,45.5,60,30.03,10.0,SSE,8.1,-,N/A,,Clear,150,2012-11-22 22:15:00
4:35 PM,59.0,45.7,61,30.03,10.0,SSE,9.2,-,N/A,,Clear,160,2012-11-22 22:35:00
4:55 PM,57.0,45.7,66,30.03,10.0,SSE,8.1,-,N/A,,Clear,160,2012-11-22 22:55:00
5:15 PM,55.6,45.7,69,30.03,10.0,SSE,6.9,-,N/A,,Clear,160,2012-11-22 23:15:00
5:35 PM,55.2,45.7,70,30.02,10.0,SSE,6.9,-,N/A,,Clear,160,2012-11-22 23:35:00
5:55 PM,56.5,46.0,68,30.01,10.0,SSE,9.2,-,N/A,,Clear,160,2012-11-22 23:55:00
6:15 PM,57.2,46.0,66,30.01,10.0,SSE,10.4,-,N/A,,Clear,160,2012-11-23 00:15:00
6:35 PM,57.2,45.7,65,30.01,10.0,SSE,10.4,-,N/A,,Clear,160,2012-11-23 00:35:00
6:55 PM,57.6,45.3,64,30.01,10.0,South,12.7,-,N/A,,Clear,170,2012-11-23 00:55:00
7:15 PM,57.4,45.1,64,30.00,10.0,South,11.5,-,N/A,,Clear,180,2012-11-23 01:15:00
7:55 PM,58.3,45.0,61,29.99,10.0,South,12.7,-,N/A,,Scattered Clouds,180,2012-11-23 01:55:00
8:15 PM,59.2,45.1,60,30.00,10.0,South,15.0,20.7,N/A,,Mostly Cloudy,180,2012-11-23 02:15:00
8:35 PM,60.1,45.3,58,30.01,10.0,SSW,16.1,21.9,N/A,,Overcast,200,2012-11-23 02:35:00
8:55 PM,60.3,45.9,59,30.02,10.0,SSW,17.3,21.9,N/A,,Overcast,210,2012-11-23 02:55:00
9:15 PM,59.4,47.1,64,30.03,10.0,SW,19.6,35.7,N/A,,Overcast,220,2012-11-23 03:15:00
9:35 PM,55.9,51.6,85,30.03,7.0,SW,13.8,17.3,0.06,Rain,Rain,220,2012-11-23 03:35:00
9:55 PM,54.9,53.2,94,30.02,7.0,SSW,8.1,-,0.11,Rain,Rain,210,2012-11-23 03:55:00
10:15 PM,54.7,54.0,97,30.02,10.0,SSW,12.7,23.0,N/A,Rain,Light Rain,210,2012-11-23 04:15:00
10:35 PM,55.8,54.7,96,30.02,7.0,SSW,17.3,23.0,0.01,Rain,Rain,210,2012-11-23 04:35:00
10:55 PM,55.9,55.4,98,30.02,7.0,SW,15.0,20.7,0.03,Rain,Light Rain,220,2012-11-23 04:55:00
11:15 PM,55.9,55.4,98,30.02,7.0,SSW,16.1,-,0.01,Rain,Light Rain,210,2012-11-23 05:15:00
11:55 PM,55.4,55.4,100,30.01,7.0,SSW,15.0,-,0.04,Rain,Light Rain,210,2012-11-23 05:55:00